カタログに戻る

EUROPA CLIPPER

運用中科学HCO
NORAD 61507·PAYLOAD·🇺🇸 United States

打ち上げ Oct 14, 2024 から Cape Canaveral Space Force Station

Loading…

TLE

古いSource: Space-Track

元期: Oct 14, 2024, 16:13 UTC

1 61507U 24182A   24288.67632810  .00000840 -26562-5  00000-0 0  9992
2 61507  31.9400  67.0176 0018900  60.7600  70.5300 16.38814738    06

AllMySatでEUROPA CLIPPERをリアルタイム追跡

Download on the App Store